Location: STAR School
(35.3054°N, 111.2976°W)
Time: 17:14:17
(UTC-07:00)

Vanguard 1 - Pass Details

Date: 29 October 2019
Orbit: 652 x 3831 km, 34.2° (Epoch: 11 November)

Event Time Altitude Azimuth Distance (km) Brightness Sun altitude
Rises 18:41:01 0° 269° (W) 3,341 14.7 -14.3°
Reaches altitude 10° 18:43:02 10° 268° (W) 2,589 13.6 -14.7°
Maximum altitude 18:49:07 84° 181° (S) 1,276 10.6 -15.9°
Enters shadow 18:56:25 22° 95° (E) 3,259 12.1 -17.4°
